| time (UTC) | temp F | wind direction | speed MPH | gust MPH | rain 1hr in | rain 24hr in | rain mn in | humidity % | barometer mb |
| 20260503184057 | 64 | 0 | 2.0 | 6.0 | 0.00 | 0.00 | 0.00 | 59 | 1013.0 |
| 20260503183556 | 64 | 115 | 2.0 | 7.0 | 0.00 | 0.00 | 0.00 | 59 | 1013.2 |
| 20260503183101 | 64 | 118 | 3.0 | 7.0 | 0.00 | 0.00 | 0.00 | 59 | 1013.2 |
| 20260503182553 | 64 | 161 | 2.0 | 7.0 | 0.00 | 0.00 | 0.00 | 59 | 1013.3 |
| 20260503182053 | 64 | 130 | 2.0 | 6.0 | 0.00 | 0.00 | 0.00 | 60 | 1013.3 |
| 20260503181559 | 63 | 192 | 2.0 | 4.0 | 0.00 | 0.00 | 0.00 | 62 | 1013.3 |
| 20260503181054 | 63 | 110 | 0.0 | 6.0 | 0.00 | 0.00 | 0.00 | 63 | 1013.2 |
| 20260503180554 | 62 | 0 | 1.0 | 6.0 | 0.00 | 0.00 | 0.00 | 63 | 1013.3 |
| 20260503175553 | 62 | 178 | 0.0 | 5.0 | 0.00 | 0.00 | 0.00 | 64 | 1013.3 |
| 20260503175053 | 62 | 0 | 2.0 | 5.0 | 0.00 | 0.00 | 0.00 | 64 | 1013.3 |
| 20260503174556 | 62 | 0 | 1.0 | 6.0 | 0.00 | 0.00 | 0.00 | 65 | 1013.2 |
| 20260503174053 | 61 | 127 | 1.0 | 6.0 | 0.00 | 0.00 | 0.00 | 66 | 1013.2 |
| 20260503173555 | 61 | 138 | 1.0 | 6.0 | 0.00 | 0.00 | 0.00 | 66 | 1013.3 |
| 20260503173100 | 61 | 171 | 1.0 | 4.0 | 0.00 | 0.00 | 0.00 | 67 | 1013.3 |
| 20260503172557 | 61 | 0 | 0.0 | 11.0 | 0.00 | 0.00 | 0.00 | 68 | 1013.3 |
| 20260503172056 | 61 | 186 | 3.0 | 11.0 | 0.00 | 0.00 | 0.00 | 68 | 1013.4 |
| 20260503171612 | 61 | 190 | 2.0 | 6.0 | 0.00 | 0.00 | 0.00 | 71 | 1013.3 |
| 20260503171101 | 60 | 0 | 0.0 | 2.0 | 0.00 | 0.00 | 0.00 | 73 | 1013.3 |
| 20260503170558 | 59 | 0 | 0.0 | 2.0 | 0.00 | 0.00 | 0.00 | 73 | 1013.2 |
| 20260503170106 | 58 | 0 | 0.0 | 2.0 | 0.00 | 0.00 | 0.00 | 76 | 1013.3 |
| 20260503150559 | 57 | 119 | 0.0 | 3.0 | 0.00 | 0.00 | 0.00 | 74 | 1012.7 |
| 20260503131100 | 55 | 0 | 0.0 | 3.0 | 0.00 | 0.00 | 0.00 | 78 | 1011.4 |
| 20260503130559 | 55 | 0 | 0.0 | 3.0 | 0.00 | 0.00 | 0.00 | 78 | 1011.4 |
| 20260503110558 | 55 | 0 | 0.0 | 4.0 | 0.00 | 0.00 | 0.00 | 79 | 1011.5 |
| 20260503090117 | 55 | 0 | 0.0 | 6.0 | 0.00 | 0.00 | 0.00 | 78 | 1011.7 |
| 20260503081601 | 55 | 317 | 1.0 | 4.0 | 0.00 | 0.00 | 0.00 | 78 | 1011.9 |
| 20260503081057 | 55 | 299 | 1.0 | 4.0 | 0.00 | 0.00 | 0.00 | 78 | 1012.0 |
| 20260503080558 | 55 | 280 | 0.0 | 4.0 | 0.00 | 0.00 | 0.00 | 78 | 1012.0 |
| 20260503080110 | 56 | 261 | 1.0 | 4.0 | 0.00 | 0.00 | 0.00 | 78 | 1012.0 |
| 20260503072557 | 56 | 336 | 0.0 | 4.0 | 0.00 | 0.00 | 0.00 | 78 | 1012.1 |
| 20260503072057 | 56 | 17 | 0.0 | 4.0 | 0.00 | 0.00 | 0.00 | 78 | 1012.0 |
| 20260503071610 | 56 | 350 | 0.0 | 3.0 | 0.00 | 0.00 | 0.00 | 78 | 1012.0 |
| 20260503071057 | 56 | 0 | 1.0 | 3.0 | 0.00 | 0.00 | 0.00 | 78 | 1012.1 |
| 20260503070557 | 56 | 0 | 0.0 | 4.0 | 0.00 | 0.00 | 0.00 | 78 | 1012.1 |
| 20260503055057 | 56 | 0 | 1.0 | 6.0 | 0.00 | 0.00 | 0.00 | 77 | 1012.4 |
| 20260503054609 | 56 | 313 | 3.0 | 6.0 | 0.00 | 0.00 | 0.00 | 76 | 1012.5 |
| 20260503054102 | 56 | 340 | 1.0 | 8.0 | 0.00 | 0.00 | 0.00 | 76 | 1012.6 |
| 20260503053557 | 56 | 323 | 1.0 | 8.0 | 0.00 | 0.00 | 0.00 | 76 | 1012.5 |
| 20260503053058 | 56 | 331 | 2.0 | 8.0 | 0.00 | 0.00 | 0.00 | 75 | 1012.6 |
| 20260503052556 | 56 | 323 | 1.0 | 5.0 | 0.00 | 0.00 | 0.00 | 75 | 1012.8 |
| 20260503052100 | 56 | 19 | 2.0 | 6.0 | 0.00 | 0.00 | 0.00 | 75 | 1012.8 |
| 20260503051559 | 56 | 315 | 2.0 | 6.0 | 0.00 | 0.00 | 0.00 | 75 | 1012.7 |
| 20260503051101 | 56 | 0 | 2.0 | 6.0 | 0.00 | 0.00 | 0.00 | 75 | 1012.6 |
| 20260503050557 | 56 | 325 | 3.0 | 6.0 | 0.00 | 0.00 | 0.00 | 75 | 1012.7 |
| 20260503050058 | 56 | 316 | 1.0 | 6.0 | 0.00 | 0.00 | 0.00 | 76 | 1012.6 |
| 20260503045558 | 56 | 307 | 2.0 | 6.0 | 0.00 | 0.00 | 0.00 | 76 | 1012.5 |
| 20260503045056 | 56 | 279 | 2.0 | 7.0 | 0.00 | 0.00 | 0.00 | 76 | 1012.5 |
| 20260503044558 | 56 | 323 | 2.0 | 7.0 | 0.00 | 0.00 | 0.00 | 76 | 1012.4 |
| 20260503044057 | 56 | 319 | 2.0 | 7.0 | 0.00 | 0.00 | 0.00 | 76 | 1012.4 |
| 20260503043601 | 57 | 299 | 1.0 | 7.0 | 0.00 | 0.00 | 0.00 | 76 | 1012.3 |
| 20260503043057 | 57 | 314 | 1.0 | 9.0 | 0.00 | 0.00 | 0.00 | 76 | 1012.2 |
| 20260503042600 | 56 | 340 | 3.0 | 9.0 | 0.00 | 0.00 | 0.00 | 76 | 1012.2 |
| 20260503042058 | 57 | 304 | 3.0 | 9.0 | 0.00 | 0.00 | 0.00 | 76 | 1012.2 |
| 20260503041601 | 57 | 299 | 3.0 | 8.0 | 0.00 | 0.00 | 0.00 | 76 | 1012.1 |
| 20260503041057 | 57 | 302 | 3.0 | 9.0 | 0.00 | 0.00 | 0.00 | 76 | 1012.0 |
| 20260503040554 | 57 | 317 | 1.0 | 11.0 | 0.00 | 0.00 | 0.00 | 76 | 1012.1 |
| 20260503040059 | 57 | 296 | 3.0 | 11.0 | 0.00 | 0.00 | 0.00 | 76 | 1012.0 |
| 20260503035557 | 57 | 309 | 4.0 | 11.0 | 0.00 | 0.00 | 0.00 | 75 | 1011.9 |
| 20260503035054 | 57 | 338 | 3.0 | 9.0 | 0.00 | 0.00 | 0.00 | 75 | 1011.8 |
| 20260503034600 | 57 | 30 | 2.0 | 8.0 | 0.00 | 0.00 | 0.00 | 75 | 1011.7 |
| 20260503034057 | 57 | 327 | 2.0 | 8.0 | 0.00 | 0.00 | 0.00 | 75 | 1011.8 |
| 20260503033557 | 57 | 319 | 3.0 | 10.0 | 0.00 | 0.00 | 0.00 | 74 | 1011.7 |
| 20260503033054 | 57 | 333 | 4.0 | 10.0 | 0.00 | 0.00 | 0.00 | 74 | 1011.8 |
| 20260503032554 | 57 | 334 | 4.0 | 10.0 | 0.00 | 0.00 | 0.00 | 73 | 1011.7 |
| 20260503032058 | 58 | 266 | 3.0 | 10.0 | 0.00 | 0.00 | 0.00 | 73 | 1011.7 |
| 20260503031556 | 58 | 279 | 3.0 | 10.0 | 0.00 | 0.00 | 0.00 | 73 | 1011.7 |
| 20260503031058 | 58 | 334 | 3.0 | 8.0 | 0.00 | 0.00 | 0.00 | 73 | 1011.7 |
| 20260503030557 | 58 | 0 | 3.0 | 8.0 | 0.00 | 0.00 | 0.00 | 72 | 1011.6 |
| 20260503025554 | 58 | 313 | 4.0 | 9.0 | 0.00 | 0.00 | 0.00 | 72 | 1011.5 |
| 20260503025101 | 58 | 352 | 3.0 | 9.0 | 0.00 | 0.00 | 0.00 | 72 | 1011.3 |
| 20260503024558 | 58 | 332 | 3.0 | 9.0 | 0.00 | 0.00 | 0.00 | 72 | 1011.4 |
| 20260503024058 | 58 | 298 | 4.0 | 9.0 | 0.00 | 0.00 | 0.00 | 71 | 1011.2 |
| 20260503023555 | 58 | 306 | 2.0 | 10.0 | 0.00 | 0.00 | 0.00 | 71 | 1011.2 |
| 20260503023107 | 59 | 336 | 4.0 | 10.0 | 0.00 | 0.00 | 0.00 | 71 | 1011.2 |
| 20260503022557 | 59 | 335 | 4.0 | 12.0 | 0.00 | 0.00 | 0.00 | 71 | 1011.1 |
| 20260503022058 | 59 | 344 | 3.0 | 13.0 | 0.00 | 0.00 | 0.00 | 71 | 1011.0 |
| 20260503021602 | 59 | 13 | 4.0 | 13.0 | 0.00 | 0.00 | 0.00 | 71 | 1011.1 |
| 20260503021058 | 60 | 315 | 6.0 | 13.0 | 0.00 | 0.00 | 0.00 | 70 | 1011.1 |
| 20260503020555 | 60 | 338 | 8.0 | 13.0 | 0.00 | 0.00 | 0.00 | 70 | 1011.2 |
| 20260503020059 | 60 | 302 | 6.0 | 13.0 | 0.00 | 0.00 | 0.00 | 70 | 1011.1 |
| 20260503015554 | 61 | 325 | 6.0 | 13.0 | 0.00 | 0.00 | 0.00 | 70 | 1011.1 |
| 20260503015054 | 61 | 360 | 6.0 | 12.0 | 0.00 | 0.00 | 0.00 | 70 | 1011.2 |
| 20260503014555 | 61 | 335 | 4.0 | 11.0 | 0.00 | 0.00 | 0.00 | 70 | 1011.1 |
| 20260503014057 | 61 | 21 | 4.0 | 11.0 | 0.00 | 0.00 | 0.00 | 70 | 1011.1 |
| 20260503013559 | 62 | 338 | 6.0 | 11.0 | 0.00 | 0.00 | 0.00 | 69 | 1011.2 |
| 20260503013059 | 62 | 349 | 5.0 | 11.0 | 0.00 | 0.00 | 0.00 | 69 | 1011.2 |
| 20260503012555 | 62 | 333 | 4.0 | 10.0 | 0.00 | 0.00 | 0.00 | 69 | 1011.1 |
| 20260503012054 | 63 | 331 | 4.0 | 12.0 | 0.00 | 0.00 | 0.00 | 69 | 1011.1 |
| 20260503011620 | 63 | 5 | 5.0 | 12.0 | 0.00 | 0.00 | 0.00 | 68 | 1011.2 |
| 20260503011057 | 63 | 360 | 7.0 | 12.0 | 0.00 | 0.00 | 0.00 | 67 | 1011.1 |
| 20260503010555 | 63 | 352 | 4.0 | 12.0 | 0.00 | 0.00 | 0.00 | 67 | 1011.1 |
| 20260503010058 | 64 | 314 | 6.0 | 12.0 | 0.00 | 0.00 | 0.00 | 67 | 1011.1 |
| 20260503005559 | 64 | 5 | 4.0 | 14.0 | 0.00 | 0.00 | 0.00 | 67 | 1011.1 |
| 20260503005058 | 64 | 323 | 5.0 | 14.0 | 0.00 | 0.00 | 0.00 | 66 | 1011.1 |
| 20260503004555 | 64 | 283 | 6.0 | 12.0 | 0.00 | 0.00 | 0.00 | 66 | 1011.1 |
| 20260503004058 | 64 | 351 | 5.0 | 13.0 | 0.00 | 0.00 | 0.00 | 66 | 1011.1 |
| 20260503003557 | 65 | 19 | 5.0 | 13.0 | 0.00 | 0.00 | 0.00 | 65 | 1011.1 |
| 20260503003055 | 65 | 348 | 3.0 | 11.0 | 0.00 | 0.00 | 0.00 | 65 | 1011.2 |
| 20260503002557 | 65 | 330 | 5.0 | 12.0 | 0.00 | 0.00 | 0.00 | 66 | 1011.2 |
| 20260503002103 | 65 | 319 | 6.0 | 14.0 | 0.00 | 0.00 | 0.00 | 66 | 1011.2 |
| 20260503001619 | 65 | 323 | 6.0 | 14.0 | 0.00 | 0.00 | 0.00 | 65 | 1011.3 |
| 20260503001055 | 65 | 320 | 6.0 | 12.0 | 0.00 | 0.00 | 0.00 | 66 | 1011.3 |
| 20260503000558 | 65 | 360 | 3.0 | 13.0 | 0.00 | 0.00 | 0.00 | 66 | 1011.3 |
| 20260503000126 | 66 | 298 | 7.0 | 13.0 | 0.00 | 0.00 | 0.00 | 65 | 1011.2 |
| 20260502235600 | 66 | 294 | 7.0 | 14.0 | 0.00 | 0.00 | 0.00 | 63 | 1011.4 |
| 20260502235057 | 66 | 319 | 6.0 | 14.0 | 0.00 | 0.00 | 0.00 | 63 | 1011.3 |
| 20260502234606 | 66 | 336 | 6.0 | 16.0 | 0.00 | 0.00 | 0.00 | 63 | 1011.2 |
| 20260502234058 | 66 | 302 | 6.0 | 16.0 | 0.00 | 0.00 | 0.00 | 63 | 1011.3 |
| 20260502233557 | 67 | 300 | 5.0 | 16.0 | 0.00 | 0.00 | 0.00 | 64 | 1011.3 |
| 20260502233057 | 66 | 334 | 6.0 | 12.0 | 0.00 | 0.00 | 0.00 | 64 | 1011.4 |
| 20260502232557 | 66 | 316 | 6.0 | 13.0 | 0.00 | 0.00 | 0.00 | 64 | 1011.5 |
| 20260502232058 | 66 | 15 | 6.0 | 16.0 | 0.00 | 0.00 | 0.00 | 65 | 1011.5 |
| 20260502231558 | 66 | 350 | 5.0 | 16.0 | 0.00 | 0.00 | 0.00 | 64 | 1011.6 |
| 20260502231104 | 66 | 331 | 6.0 | 16.0 | 0.00 | 0.00 | 0.00 | 64 | 1011.7 |
| 20260502230558 | 67 | 311 | 6.0 | 13.0 | 0.00 | 0.00 | 0.00 | 64 | 1011.6 |
| 20260502230100 | 67 | 346 | 5.0 | 13.0 | 0.00 | 0.00 | 0.00 | 63 | 1011.9 |
| 20260502225559 | 67 | 315 | 6.0 | 13.0 | 0.00 | 0.00 | 0.00 | 62 | 1011.8 |
| 20260502225054 | 67 | 310 | 5.0 | 12.0 | 0.00 | 0.00 | 0.00 | 62 | 1012.0 |
| 20260502224604 | 67 | 13 | 5.0 | 12.0 | 0.00 | 0.00 | 0.00 | 63 | 1012.0 |
| 20260502224100 | 67 | 305 | 6.0 | 13.0 | 0.00 | 0.00 | 0.00 | 62 | 1012.2 |
| 20260502223554 | 67 | 347 | 7.0 | 13.0 | 0.00 | 0.00 | 0.00 | 62 | 1012.1 |
| 20260502223058 | 68 | 321 | 4.0 | 12.0 | 0.00 | 0.00 | 0.00 | 61 | 1012.1 |
| 20260502222558 | 68 | 310 | 6.0 | 12.0 | 0.00 | 0.00 | 0.00 | 61 | 1012.2 |
| 20260502222055 | 68 | 305 | 3.0 | 12.0 | 0.00 | 0.00 | 0.00 | 61 | 1012.3 |
| 20260502221612 | 68 | 360 | 3.0 | 12.0 | 0.00 | 0.00 | 0.00 | 62 | 1012.4 |
| 20260502221057 | 68 | 333 | 5.0 | 12.0 | 0.00 | 0.00 | 0.00 | 63 | 1012.5 |
| 20260502220558 | 68 | 317 | 6.0 | 11.0 | 0.00 | 0.00 | 0.00 | 62 | 1012.5 |
| 20260502215555 | 69 | 346 | 3.0 | 11.0 | 0.00 | 0.00 | 0.00 | 63 | 1012.5 |
| 20260502215058 | 67 | 281 | 4.0 | 10.0 | 0.00 | 0.00 | 0.00 | 64 | 1012.6 |
| 20260502214556 | 68 | 310 | 5.0 | 10.0 | 0.00 | 0.00 | 0.00 | 63 | 1012.7 |
| 20260502214057 | 68 | 286 | 4.0 | 10.0 | 0.00 | 0.00 | 0.00 | 63 | 1012.5 |
| 20260502213558 | 68 | 294 | 4.0 | 10.0 | 0.00 | 0.00 | 0.00 | 63 | 1012.7 |
| 20260502213057 | 67 | 315 | 5.0 | 10.0 | 0.00 | 0.00 | 0.00 | 64 | 1012.8 |
| 20260502212557 | 67 | 299 | 4.0 | 10.0 | 0.00 | 0.00 | 0.00 | 64 | 1012.7 |
| 20260502212058 | 67 | 31 | 3.0 | 13.0 | 0.00 | 0.00 | 0.00 | 64 | 1013.0 |
| 20260502211555 | 67 | 352 | 4.0 | 13.0 | 0.00 | 0.00 | 0.00 | 64 | 1013.0 |
| 20260502211058 | 68 | 343 | 3.0 | 11.0 | 0.00 | 0.00 | 0.00 | 63 | 1013.0 |
| 20260502210558 | 68 | 345 | 5.0 | 11.0 | 0.00 | 0.00 | 0.00 | 62 | 1013.0 |
| 20260502210120 | 67 | 13 | 3.0 | 11.0 | 0.00 | 0.00 | 0.00 | 64 | 1013.0 |
| 20260502205600 | 67 | 332 | 3.0 | 9.0 | 0.00 | 0.00 | 0.00 | 64 | 1013.1 |
| 20260502205058 | 67 | 340 | 2.0 | 8.0 | 0.00 | 0.00 | 0.00 | 64 | 1013.2 |
| 20260502204559 | 67 | 273 | 3.0 | 8.0 | 0.00 | 0.00 | 0.00 | 64 | 1013.3 |
| 20260502204058 | 67 | 360 | 4.0 | 8.0 | 0.00 | 0.00 | 0.00 | 64 | 1013.4 |
| 20260502203558 | 67 | 17 | 3.0 | 8.0 | 0.00 | 0.00 | 0.00 | 64 | 1013.3 |
| 20260502203058 | 67 | 0 | 2.0 | 10.0 | 0.00 | 0.00 | 0.00 | 63 | 1013.4 |
| 20260502202557 | 67 | 350 | 3.0 | 10.0 | 0.00 | 0.00 | 0.00 | 63 | 1013.4 |
| 20260502202102 | 68 | 5 | 4.0 | 10.0 | 0.00 | 0.00 | 0.00 | 62 | 1013.6 |
| 20260502201557 | 68 | 321 | 3.0 | 9.0 | 0.00 | 0.00 | 0.00 | 64 | 1013.4 |
| 20260502201057 | 67 | 326 | 3.0 | 9.0 | 0.00 | 0.00 | 0.00 | 64 | 1013.6 |
| 20260502200558 | 67 | 30 | 4.0 | 11.0 | 0.00 | 0.00 | 0.00 | 64 | 1013.6 |
| 20260502200121 | 68 | 11 | 1.0 | 11.0 | 0.00 | 0.00 | 0.00 | 63 | 1013.7 |
| 20260502195557 | 69 | 352 | 4.0 | 11.0 | 0.00 | 0.00 | 0.00 | 61 | 1013.8 |
| 20260502195057 | 69 | 352 | 2.0 | 7.0 | 0.00 | 0.00 | 0.00 | 62 | 1013.7 |
| 20260502194600 | 70 | 0 | 1.0 | 7.0 | 0.00 | 0.00 | 0.00 | 60 | 1013.7 |
| 20260502194058 | 68 | 193 | 1.0 | 7.0 | 0.00 | 0.00 | 0.00 | 64 | 1013.7 |
| 20260502193558 | 67 | 62 | 2.0 | 7.0 | 0.00 | 0.00 | 0.00 | 65 | 1013.8 |
| 20260502193057 | 67 | 88 | 2.0 | 5.0 | 0.00 | 0.00 | 0.00 | 65 | 1013.8 |
| 20260502192558 | 67 | 15 | 0.0 | 7.0 | 0.00 | 0.00 | 0.00 | 67 | 1013.8 |
| 20260502192059 | 65 | 300 | 0.0 | 7.0 | 0.00 | 0.00 | 0.00 | 67 | 1013.8 |
| 20260502191604 | 66 | 113 | 2.0 | 7.0 | 0.00 | 0.00 | 0.00 | 67 | 1013.8 |
| 20260502191100 | 65 | 0 | 0.0 | 4.0 | 0.00 | 0.00 | 0.00 | 68 | 1013.8 |
| 20260502190601 | 65 | 47 | 0.0 | 4.0 | 0.00 | 0.00 | 0.00 | 69 | 1013.9 |
| 20260502190100 | 64 | 0 | 1.0 | 7.0 | 0.00 | 0.00 | 0.00 | 69 | 1013.9 |
| 20260502185557 | 64 | 17 | 0.0 | 7.0 | 0.00 | 0.00 | 0.00 | 69 | 1014.0 |
| 20260502185057 | 64 | 311 | 1.0 | 5.0 | 0.00 | 0.00 | 0.00 | 70 | 1014.0 |
| 20260502184557 | 64 | 0 | 0.0 | 4.0 | 0.00 | 0.00 | 0.00 | 69 | 1013.9 |